Powrót do katalogu

STARLINK-37152

AktywnyŁącznośćSSO
NORAD 68616·PAYLOAD·🇺🇸 United States

Wystrzelony Apr 5, 2026 z Vandenberg Space Force Base

Loading…

Następne Przeloty (najbliższe 24 godziny)

TLE

ŚwieżeSource: CelesTrak SupGP

Epoka: Sep 14, 2026, 21:40 UTC

1 68616C 26073Q   26257.90326389  .00087830  00000+0  27270-2 0  2579
2 68616  97.2851  96.0099 0001783  96.2115 271.2581 15.33388074    16

Śledź STARLINK-37152 w czasie rzeczywistym z AllMySat

Download on the App Store